Terug naar catalogus

STARLINK-1133

ActiefCommunicatieVLEO
NORAD 45064·PAYLOAD·🇺🇸 United States

Gelanceerd Jan 29, 2020 vanaf Cape Canaveral Space Force Station

Loading…

Volgende Passages (komende 24 uur)

TLE

VersSource: CelesTrak SupGP

Epoch: Sep 14, 2026, 21:01 UTC

1 45064C 20006W   26257.87618056  .00041898  00000+0  93399-3 0  2572
2 45064  53.1526  91.7699 0000391 128.2502 263.8293 15.42984409    17

Volg STARLINK-1133 in realtime met AllMySat

Download on the App Store